Location: Fredericksburg
(30.2750°N, 98.8720°W)
Time: 09:29:47
(UTC-05:00)

Daily predictions for brighter satellites

Satellite Brightness Start Highest point End
(mag) Time Altitude Azimuth Time Altitude Azimuth Time Altitude Azimuth
Cosmos 2278 Rocket 2.3 20:55:12 10° NNW 21:00:50 62° ENE 21:06:24 10° SSE
RESURS DK-1 4.2 20:58:58 10° NW 21:02:37 30° WSW 21:06:15 10° SSW
ATLAS CENTAUR R/B 3.6 20:59:05 10° SW 21:03:36 37° WNW 21:08:16 10° N
Atlas Centaur 2 3.0 20:57:03 10° SW 21:03:50 55° SSE 21:11:53 10° E
BREEZE-M R/B 3.1 21:01:22 10° NW 21:04:24 64° SW 21:09:57 10° SE
Cosmos 1606 Rocket 4.2 21:01:52 10° NNE 21:05:59 37° E 21:10:02 10° SSE
Cosmos 1315 Rocket 4.5 21:03:54 10° NNW 21:07:40 36° W 21:11:22 10° SSW
CZ-2D R/B 3.3 21:04:21 10° SSE 21:08:11 61° ENE 21:12:02 10° N
H-2A R/B 3.6 21:05:30 10° ESE 21:08:33 20° ENE 21:11:38 10° NNE
Cosmos 158 Rocket 4.5 21:03:36 10° SSW 21:08:34 65° WNW 21:13:41 10° N
SL-16 R/B 2.2 21:09:03 10° SSW 21:14:42 89° WNW 21:20:23 10° NNE
Cosmos 1666 4.4 21:16:07 10° NE 21:18:45 17° ENE 21:20:23 14° ESE
Cosmos 1500 3.3 21:16:19 10° N 21:20:13 82° W 21:24:05 10° S
COSMOS 2455 3.7 21:17:33 10° SSE 21:22:29 27° ESE 21:27:25 10° NE
Milstar 3 Cent rocket 2.8 21:14:35 10° W 21:23:38 63° SSW 21:27:55 16° ESE
ATLAS 3B CENTAUR R/B 4.0 21:22:25 10° SW 21:25:22 17° S 21:30:12 10° SSE
Resurs 01 Rocket 4.2 21:23:08 10° SW 21:26:24 20° W 21:29:40 10° NW
Lacrosse 5 rocket 4.5 21:26:32 10° WNW 21:28:45 15° NW 21:31:04 10° N
Cosmos 1025 Rocket 3.9 21:25:09 10° SSW 21:29:26 53° W 21:33:44 10° N
ATLAS 3B R/B 4.0 21:26:55 10° SSE 21:32:20 21° ESE 21:37:44 10° ENE
Cosmos 1743 2.6 21:28:59 10° N 21:32:49 78° E 21:36:18 12° S
Cosmos 2228 4.0 21:29:03 10° NNE 21:32:57 30° E 21:35:07 20° SE
Meteor 1-23 Rocket 4.2 21:29:42 10° S 21:35:18 83° E 21:41:01 10° N
Cosmos 1892 Rocket 4.0 21:33:30 10° SSW 21:37:52 66° W 21:42:19 10° N
Cosmos 2098 Rocket 4.1 21:35:02 10° NNW 21:38:29 42° W 21:42:47 10° SSW
Centaur D AC-28 1.9 21:36:22 10° W 21:40:49 50° SSW 21:42:46 24° SE
ERS-1 Rocket 3.0 21:36:58 15° SSE 21:41:01 63° ENE 21:45:58 10° N
USA 186 2.8 21:39:38 10° S 21:42:28 39° W 21:45:09 10° NNW
Cosmos 1603 3.7 21:38:13 10° S 21:43:41 57° ESE 21:49:10 10° NNE
Envisat 3.8 21:42:41 21° ESE 21:45:10 34° ENE 21:49:42 10° N
SJ-11-01 4.3 21:42:38 19° SSE 21:45:52 63° ENE 21:50:29 10° N
Abrixas rocket 4.4 21:47:25 10° NNW 21:49:58 19° NNE 21:51:25 15° ENE
Nimbus 7 Rocket 4.3 21:44:39 10° NNE 21:50:35 70° ESE 21:56:25 10° S
Okean 2 3.8 21:47:12 10° SSW 21:51:20 65° W 21:55:29 10° N
Cosmos 1110 Rocket 4.0 21:47:49 10° NNW 21:53:07 81° WSW 21:56:56 19° S
Meteor 2-9 Rocket 4.3 21:48:55 10° N 21:54:36 66° E 21:58:25 22° SSE
Meteor 2-4 Rocket 4.3 21:49:06 10° SSW 21:54:50 64° W 22:00:43 10° N
Delta 168 3.3 21:57:31 10° WSW 22:00:56 41° S 22:01:44 37° SE
H-2A R/B 4.5 21:58:28 10° SSW 22:01:59 31° W 22:05:31 10° NW
ISS -3.2 22:00:36 10° SW 22:03:51 73° NW 22:07:06 10° NE
OTV 4 2.8 22:02:45 10° WSW 22:04:30 15° SW 22:04:31 15° SW
Cosmos 2297 3.9 21:59:07 10° NNW 22:04:49 71° WSW 22:08:32 22° S
Tsikada Rocket 4.0 22:00:37 14° S 22:06:08 69° E 22:12:30 10° N
CZ-2C R/B 2.3 22:06:30 24° WSW 22:06:51 25° W 22:08:50 10° NW
UNK 4.3 22:02:17 10° NNE 22:07:44 61° ESE 22:11:47 20° S
Cosmos 1943 3.8 22:07:20 33° SE 22:08:17 35° ESE 22:13:22 10° NE
Cosmos 1513 Rocket 4.4 22:03:41 10° N 22:09:58 80° E 22:13:42 25° S
SPOT 5 2.7 22:15:35 47° SE 22:16:34 60° ENE 22:20:51 10° N
MetOp-A 4.4 22:16:40 38° ESE 22:18:08 49° ENE 22:23:17 10° N
Cosmos 1461 3.5 22:14:25 10° N 22:18:24 40° ENE 22:18:39 39° ENE
CZ-4 SHROUD 3.4 22:19:33 62° NNE 22:19:33 62° NNE 22:22:19 10° N
Cosmos 1602 Rocket 4.0 22:17:41 18° SSW 22:20:55 62° W 22:25:21 10° N
Cosmos 2058 Rocket 4.3 22:17:18 10° NNW 22:21:20 37° W 22:24:15 17° SSW
GEOS 3 Rocket 4.5 22:19:48 24° S 22:22:34 43° WSW 22:27:33 10° NW
Cosmos 2285 Rocket 4.3 22:16:36 10° NNW 22:22:52 65° WSW 22:26:36 25° S
Cosmos 1825 Rocket 4.3 22:26:46 37° ENE 22:26:46 37° ENE 22:30:12 10° NNE
H-2A R/B 4.0 22:28:49 14° ENE 22:28:49 14° ENE 22:30:59 10° NE
SPOT 1/Viking Rocket 3.7 22:36:21 49° E 22:36:48 51° ENE 22:41:46 10° N
Cosmos 1812 Rocket 3.4 22:33:07 10° N 22:37:31 82° E 22:37:38 81° ESE
Terra 3.9 22:39:33 15° ENE 22:39:33 15° ENE 22:41:33 10° NNE
Cosmos 1190 Rocket 4.1 22:40:31 57° E 22:40:31 57° E 22:45:34 10° NNE
H-2A R/B 3.9 22:42:31 19° SW 22:44:21 25° W 22:47:52 10° NW
USA 245 4.4 22:43:14 55° SE 22:44:24 67° ENE 22:49:56 10° N
Geosat 3.9 22:39:36 10° NNE 22:44:24 65° E 22:44:24 65° E
SeaSat 1 2.3 22:47:09 70° S 22:47:40 82° WSW 22:52:37 10° NNW
ARGOS 3.2 22:52:05 58° E 22:52:13 58° ENE 22:57:32 10° N
Cosmos 1634 Rocket 4.0 22:47:06 10° N 22:53:10 58° E 22:53:37 57° ESE
Atlas Centaur 2 2.9 22:45:47 10° W 22:53:36 87° S 22:58:14 31° E
Cosmos 2369 Rocket 3.0 22:53:17 10° N 22:58:16 36° ENE 22:58:16 36° ENE
CZ-4B R/B 4.3 22:55:28 10° N 23:00:22 48° WNW 23:02:50 27° SW
NOAA 11 4.1 23:04:33 69° ENE 23:04:33 69° ENE 23:09:46 10° N
Cosmos 489 Rocket 4.3 23:04:43 71° SSE 23:05:17 78° ESE 23:11:39 10° NNE
COSMOS 2455 4.3 23:02:43 10° SW 23:08:09 36° WNW 23:13:39 10° N
Cosmos 1953 Rocket 4.5 23:12:42 45° N 23:12:42 45° N 23:15:49 10° N
Cosmos 2279 Rocket 4.3 23:11:38 10° N 23:17:07 50° ENE 23:17:07 50° ENE
ATLAS 3B R/B 3.2 23:14:51 10° SW 23:22:29 66° WNW 23:30:04 10° NNE
Meteor 1-22 Rocket 4.3 23:17:20 10° N 23:22:21 69° NNE 23:22:21 69° NNE
Cosmos 407 Rocket 4.0 23:29:34 57° NW 23:29:34 57° NW 23:34:23 10° N
USA 234 3.1 23:33:17 85° E 23:33:27 87° NE 23:40:03 10° NW
Lacrosse 4 Rocket 3.5 23:35:28 23° NNW 23:35:28 23° NNW 23:37:21 10° N
